INTELSAT 37E (IS-37E)

Last updated on Tue Oct 15 2024 00:02:41 GMT+0000 (Coordinated Universal Time)

1 42950U 17059A 24288.18956101 -.00000142 00000+0 00000+0 0 9993 2 42950 0.0176 257.3165 0002912 308.4808 227.7023 1.00270095 25936
UTC large
Height (km)
Speed (km/s)
/
Latitude / Longitude
Inclination (degrees)
Orbital Period (minutes)
Azimuth
Elevation
Range (km)
Doppler Factor

Next 0 passes for location: London (51.5072 / 0.1276)

Sorry there are no passes over London.